Location: Bukit Nyuki
(2.5885°N, 113.7476°E)
Time: 14:04:41
(UTC+00:00)

Cosmos 1634 Rocket - Pass Details

Date: 18 May 2021
Orbit: 960 x 992 km, 82.9° (Epoch: 15 June)

Event Time Altitude Azimuth Distance (km) Brightness Sun altitude
Rises 21:02:16 0° 347° (NNW) 3,653 7.1 -17.7°
Reaches altitude 10° 21:04:49 10° 343° (NNW) 2,713 6.4 -17.1°
Maximum altitude 21:10:50 53° 267° (W) 1,190 4.1 -15.7°
Drops below altitude 10° 21:16:55 10° 192° (SSW) 2,741 6.0 -14.3°
Sets 21:19:31 0° 187° (S) 3,695 6.8 -13.6°
